[[{"header":{"parameterUnit":"m.s-1","parameterCategory":1,"la1":30.2991,"la2":30.254,"lo1":-89.0895,"lo2":-89.0444,"dy":0.0017,"dx":0.0017,"nx":28,"ny":28,"refTime":"2024-03-19T21:00:00:Z","depth":0,"parameterNumber":2,"parameterNumberName":"U-component_of_WINDS"},"data":[0,0,0,0,0,0,0,0,0,0,0,0,0,0,0,0,0,0,0,0,0,0,0,0,0,0,0,0,0,0,0,0,0,0,0,0,0,0,0,0,0,0,0,0,0,0,0,0,0,0,0,0,0,0,0,0,0,0,-0.8184,-0.8183,0,-0.8136,-0.8135,-0.8135,-0.8057,-0.8056,-0.8055,-0.8053,-0.8007,-0.8007,-0.8007,0,0,0,0,0,0,0,0,0,0,0,0,0,-0.821,-0.821,-0.8184,-0.8183,-0.8182,-0.8136,-0.8135,-0.8135,-0.8058,-0.8056,-0.8054,-0.8053,-0.8007,-0.8007,-0.8007,0,0,0,0,0,0,0,0,0,0,0,0,0,-0.8184,-0.821,-0.8184,-0.8138,-0.8134,-0.8136,-0.8135,-0.8135,-0.8058,-0.8056,-0.8054,-0.8052,-0.8007,-0.8007,-0.8007,-0.805,0,0,-0.8007,-0.8007,0,0,0,0,0,0,0,0,-0.8186,-0.8183,-0.8146,-0.8141,-0.8136,-0.81,-0.8127,-0.8106,-0.8059,-0.8087,-0.8053,-0.8051,-0.804,-0.8037,-0.8033,-0.8048,-0.8046,-0.8007,-0.8007,-0.8007,-0.8007,0,0,0,0,0,0,0,-0.8187,-0.8185,-0.8165,-0.8145,-0.814,-0.8121,-0.8115,-0.8123,-0.8076,-0.8084,-0.8079,-0.8074,-0.8037,-0.8033,-0.8031,-0.8045,-0.8007,-0.8007,-0.8007,-0.8007,-0.8095,-0.8097,0,0,0,0,0,0,-0.8196,-0.8187,-0.8166,-0.8163,-0.8156,-0.8122,-0.8115,-0.8114,-0.8076,-0.8068,-0.8076,-0.807,-0.8034,-0.8031,-0.8029,-0.8078,-0.8007,-0.8007,-0.8007,-0.8093,-0.8095,-0.8098,0,0,0,0,0,0,-0.8196,-0.8195,-0.8168,-0.8173,-0.8169,-0.8124,-0.8123,-0.8114,-0.811,-0.8069,-0.8061,-0.808,-0.8032,-0.8029,-0.8046,-0.8076,-0.8007,-0.8008,-0.809,-0.8094,-0.8097,-0.8177,0,0,0,0,0,0,-0.8198,-0.8195,-0.8211,-0.8174,-0.8169,-0.8185,-0.8125,-0.8115,-0.8111,-0.8103,-0.8071,-0.8064,-0.803,-0.8046,-0.8046,-0.8075,-0.8008,-0.8087,-0.8092,-0.8096,-0.8171,-0.8183,-0.8192,0,0,0,0,0,-0.8199,-0.8236,-0.8212,-0.821,-0.8187,-0.8187,-0.8184,-0.8144,-0.8113,-0.8129,-0.8103,-0.8065,-0.8072,-0.8048,-0.8047,-0.8077,-0.8085,-0.809,-0.8095,-0.8167,-0.818,-0.8192,0,0,0,0,0,0,-0.8278,-0.823,-0.8203,-0.823,-0.8213,-0.8174,-0.8193,-0.8159,-0.8151,-0.8145,-0.8096,-0.8089,-0.8113,-0.8096,-0.807,-0.8117,-0.8073,-0.8078,-0.8128,-0.814,-0.815,-0.8154,-0.8008,0,0,0,0,0,-0.8298,-0.8301,-0.826,-0.8287,-0.828,-0.8238,-0.8236,-0.8207,-0.8188,-0.818,-0.8155,-0.8139,-0.8137,-0.8138,-0.8134,-0.8168,-0.8161,-0.8188,-0.8198,-0.8207,-0.8213,-0.8231,-0.8243,-0.8114,-0.8114,-0.8114,0,0,-0.834,-0.8315,-0.832,-0.8302,-0.8286,-0.8291,-0.8232,-0.824,-0.8244,-0.8182,-0.8196,-0.8177,-0.8156,-0.8182,-0.8192,-0.8168,-0.8246,-0.8214,-0.8221,-0.8221,-0.8237,-0.8249,-0.826,-0.8118,-0.8117,-0.8117,0,0,-0.842,-0.8401,-0.8422,-0.8406,-0.8382,-0.8354,-0.8359,-0.8325,-0.831,-0.8323,-0.8277,-0.8281,-0.8279,-0.8266,-0.8259,-0.8334,-0.83,-0.8334,-0.8389,-0.8407,-0.8417,-0.8426,-0.8454,-0.8465,-0.834,-0.834,-0.834,0,-0.8477,-0.8482,-0.8437,-0.8448,-0.8442,-0.8385,-0.8406,-0.8393,-0.837,-0.8367,-0.8341,-0.8338,-0.8319,-0.8342,-0.8361,-0.8356,-0.8362,-0.8338,-0.8419,-0.8428,-0.8435,-0.8462,-0.8472,-0.8344,-0.8344,-0.8343,-0.8343,0,-0.8552,-0.8557,-0.8577,-0.8555,-0.8551,-0.8567,-0.8525,-0.8526,-0.8497,-0.8472,-0.8487,-0.8462,-0.8453,-0.8456,-0.8428,-0.8475,-0.8462,-0.8428,-0.8383,-0.8453,-0.8477,-0.8486,-0.8351,-0.8349,-0.8348,-0.8347,0,0,-0.8682,-0.8634,-0.8643,-0.8632,-0.8601,-0.8604,-0.8618,-0.8608,-0.8611,-0.8596,-0.8607,-0.8607,-0.8576,-0.8569,-0.8538,-0.8554,-0.8617,-0.8518,-0.8517,-0.8539,-0.8669,-0.8695,-0.8707,-0.8593,-0.8594,-0.8596,-0.8671,0,-0.8757,-0.8777,-0.8737,-0.8767,-0.8771,-0.8717,-0.8729,-0.8712,-0.8689,-0.869,-0.8664,-0.8666,-0.8624,-0.8619,-0.8632,-0.8606,-0.8642,-0.86,-0.8604,-0.8605,-0.8613,-0.872,-0.8747,-0.8819,-0.868,-0.8681,-0.8682,0,-0.8847,-0.8836,-0.8867,-0.8835,-0.8835,-0.8846,-0.8835,-0.8835,-0.8815,-0.8797,-0.8789,-0.8753,-0.8765,-0.872,-0.8737,-0.8709,-0.8708,-0.8696,-0.8698,-0.8698,-0.8649,-0.8724,-0.8841,-0.8853,-0.8696,-0.8695,-0.8694,0,-0.894,-0.8933,-0.8951,-0.8944,-0.8906,-0.8915,-0.89,-0.8877,-0.8874,-0.8864,-0.8862,-0.8854,-0.885,-0.8844,-0.8807,-0.8778,-0.8829,-0.8781,-0.8816,-0.8817,-0.883,-0.883,-0.8951,-0.8827,-0.8827,-0.8827,-0.8827,0,-0.9028,-0.905,-0.8992,-0.9004,-0.9026,-0.898,-0.9004,-0.8983,-0.8963,-0.897,-0.8922,-0.893,-0.888,-0.8883,-0.8854,-0.8873,-0.8871,-0.8858,-0.885,-0.8863,-0.8865,-0.8863,-0.8857,-0.883,-0.8829,-0.8829,-0.8828,0,-0.9137,-0.9099,-0.9115,-0.9078,-0.9069,-0.9087,-0.9056,-0.9065,-0.9038,-0.9048,-0.9047,-0.9006,-0.9007,-0.8969,-0.8961,-0.8942,-0.8974,-0.8957,-0.8981,-0.8976,-0.9014,-0.9011,-0.9138,-0.9153,-0.9019,-0.9021,-0.9022,0,-0.9196,-0.9211,-0.9176,-0.9176,-0.9163,-0.9165,-0.9162,-0.9117,-0.9116,-0.9094,-0.9106,-0.9102,-0.9097,-0.91,-0.907,-0.9065,-0.9048,-0.9093,-0.9047,-0.906,-0.905,-0.9051,-0.9053,-0.9103,-0.9105,-0.9106,-0.9107,0,-0.9307,-0.9287,-0.9284,-0.9274,-0.9271,-0.9262,-0.9249,-0.9253,-0.9203,-0.9204,-0.9204,-0.92,-0.9192,-0.919,-0.9179,-0.9164,-0.9128,-0.9122,-0.913,-0.9144,-0.9158,-0.9152,-0.9009,-0.9119,-0.9118,-0.9117,-0.9117,-0.9116,-0.9393,-0.9405,-0.9381,-0.9379,-0.9365,-0.9354,-0.9361,-0.9336,-0.9334,-0.9324,-0.9298,-0.9302,-0.9282,-0.9263,-0.9251,-0.9254,-0.9232,-0.9244,-0.9247,-0.9251,-0.9259,-0.9156,-0.9252,-0.9252,-0.9251,-0.9251,-0.9251,0,-0.9502,-0.9485,-0.9483,-0.9467,-0.9466,-0.9431,-0.9415,-0.9417,-0.9421,-0.9404,-0.94,-0.94,-0.9398,-0.9367,-0.9361,-0.937,-0.9354,-0.937,-0.937,-0.9367,-0.9278,-0.9272,-0.9384,-0.9384,-0.9384,-0.9383,-0.9383,-0.9383,-0.9559,-0.9577,-0.9555,-0.9565,-0.9547,-0.955,-0.9545,-0.9535,-0.9522,-0.9524,-0.9521,-0.9501,-0.948,-0.9472,-0.9468,-0.9459,-0.946,-0.9483,-0.9469,-0.9386,-0.9373,-0.9361,-0.9356,-0.9483,-0.9483,-0.9558,-0.9559,-0.9559]},{"header":{"parameterUnit":"m.s-1","parameterCategory":1,"la1":30.2991,"la2":30.254,"lo1":-89.0895,"lo2":-89.0444,"dy":0.0017,"dx":0.0017,"nx":28,"ny":28,"refTime":"2024-03-19T21:00:00:Z","depth":0,"parameterNumber":3,"parameterNumberName":"V-component_of_WINDS"},"data":[0,0,0,0,0,0,0,0,0,0,0,0,0,0,0,0,0,0,0,0,0,0,0,0,0,0,0,0,0,0,0,0,0,0,0,0,0,0,0,0,0,0,0,0,0,0,0,0,0,0,0,0,0,0,0,0,0,0,-0.1739,-0.1739,0,-0.1725,-0.1725,-0.1725,-0.1668,-0.1667,-0.1666,-0.1664,-0.1651,-0.1652,-0.1653,0,0,0,0,0,0,0,0,0,0,0,0,0,-0.1719,-0.1719,-0.1739,-0.1739,-0.1739,-0.1725,-0.1725,-0.1725,-0.1668,-0.1667,-0.1665,-0.1664,-0.1651,-0.1652,-0.1653,0,0,0,0,0,0,0,0,0,0,0,0,0,-0.1719,-0.172,-0.1739,-0.1709,-0.1706,-0.1725,-0.1725,-0.1725,-0.1669,-0.1667,-0.1665,-0.1663,-0.1651,-0.1652,-0.1653,-0.1701,0,0,-0.1657,-0.1658,0,0,0,0,0,0,0,0,-0.1719,-0.1719,-0.1714,-0.1711,-0.1708,-0.1696,-0.1713,-0.1717,-0.1669,-0.1683,-0.1664,-0.1662,-0.1668,-0.1668,-0.1669,-0.17,-0.17,-0.1657,-0.1658,-0.1659,-0.1659,0,0,0,0,0,0,0,-0.1719,-0.172,-0.1734,-0.1714,-0.171,-0.1697,-0.1694,-0.1713,-0.1687,-0.1682,-0.1678,-0.1677,-0.1666,-0.1668,-0.1669,-0.1699,-0.1657,-0.1658,-0.1659,-0.166,-0.177,-0.1772,0,0,0,0,0,0,-0.1723,-0.172,-0.1734,-0.1733,-0.1709,-0.1699,-0.1696,-0.1702,-0.1686,-0.1682,-0.1678,-0.1674,-0.1667,-0.1667,-0.1668,-0.1724,-0.1659,-0.166,-0.1661,-0.1768,-0.177,-0.1772,0,0,0,0,0,0,-0.1723,-0.1725,-0.1735,-0.1726,-0.1726,-0.1701,-0.1708,-0.1703,-0.1705,-0.1684,-0.1679,-0.1686,-0.1665,-0.1666,-0.1693,-0.1723,-0.166,-0.1662,-0.1765,-0.1768,-0.1771,-0.1836,0,0,0,0,0,0,-0.1722,-0.1725,-0.1742,-0.1726,-0.1727,-0.176,-0.171,-0.1704,-0.1707,-0.1702,-0.1689,-0.1685,-0.1664,-0.1692,-0.1695,-0.1724,-0.1663,-0.1762,-0.1767,-0.177,-0.1831,-0.1841,-0.1849,0,0,0,0,0,-0.1722,-0.1761,-0.1744,-0.1746,-0.1748,-0.1762,-0.1762,-0.1736,-0.171,-0.1728,-0.1714,-0.1686,-0.1719,-0.1695,-0.1698,-0.1728,-0.176,-0.1765,-0.177,-0.1827,-0.1839,-0.1849,0,0,0,0,0,0,-0.1782,-0.1758,-0.1739,-0.1774,-0.177,-0.1752,-0.1774,-0.175,-0.1754,-0.1748,-0.1716,-0.1714,-0.1746,-0.1739,-0.1713,-0.1773,-0.1735,-0.174,-0.1777,-0.1788,-0.1797,-0.18,-0.1664,0,0,0,0,0,-0.1799,-0.1812,-0.1791,-0.1824,-0.1823,-0.1799,-0.1804,-0.1785,-0.178,-0.1778,-0.1766,-0.1763,-0.1773,-0.178,-0.1787,-0.1829,-0.1826,-0.1851,-0.186,-0.1868,-0.1874,-0.1897,-0.1908,-0.1788,-0.1788,-0.1788,0,0,-0.1835,-0.1824,-0.1834,-0.1836,-0.1831,-0.1846,-0.1798,-0.1816,-0.1827,-0.1781,-0.1806,-0.1797,-0.1791,-0.1827,-0.1841,-0.1822,-0.1906,-0.1874,-0.188,-0.1882,-0.1903,-0.1914,-0.1925,-0.1791,-0.1791,-0.179,0,0,-0.1909,-0.1901,-0.1928,-0.1924,-0.1917,-0.19,-0.1907,-0.1893,-0.1885,-0.191,-0.1876,-0.1889,-0.1905,-0.1903,-0.1904,-0.1977,-0.1952,-0.198,-0.2029,-0.2052,-0.2062,-0.207,-0.2098,-0.2108,-0.1986,-0.1986,-0.1986,0,-0.1955,-0.1975,-0.1946,-0.1966,-0.1968,-0.1927,-0.1955,-0.1952,-0.1948,-0.1951,-0.1929,-0.195,-0.1943,-0.1978,-0.1995,-0.1997,-0.2005,-0.1983,-0.2063,-0.2071,-0.2078,-0.2104,-0.2115,-0.199,-0.1989,-0.1989,-0.1989,0,-0.2033,-0.2048,-0.2071,-0.2069,-0.2073,-0.2097,-0.2072,-0.208,-0.206,-0.2047,-0.2073,-0.2063,-0.2068,-0.2075,-0.2055,-0.2107,-0.2095,-0.2068,-0.2029,-0.2094,-0.2118,-0.2128,-0.1995,-0.1994,-0.1993,-0.1992,0,0,-0.2146,-0.2126,-0.2135,-0.2134,-0.2123,-0.2134,-0.2156,-0.2162,-0.217,-0.2168,-0.2188,-0.2203,-0.2178,-0.2179,-0.2159,-0.2179,-0.2239,-0.2149,-0.2148,-0.2168,-0.2298,-0.2321,-0.2333,-0.2221,-0.2223,-0.2225,-0.23,0,-0.2218,-0.2255,-0.2229,-0.2271,-0.2286,-0.2246,-0.2266,-0.2262,-0.2249,-0.226,-0.2246,-0.2258,-0.2223,-0.2224,-0.2241,-0.2228,-0.2266,-0.2222,-0.2241,-0.2242,-0.2246,-0.2345,-0.2368,-0.244,-0.2309,-0.231,-0.2311,0,-0.2307,-0.231,-0.2354,-0.234,-0.2345,-0.2364,-0.2367,-0.2377,-0.2371,-0.2361,-0.2362,-0.2337,-0.2359,-0.2319,-0.2349,-0.2321,-0.2326,-0.2321,-0.2323,-0.2326,-0.2282,-0.2353,-0.2462,-0.2473,-0.2326,-0.2324,-0.2323,0,-0.2388,-0.2402,-0.243,-0.243,-0.2415,-0.2429,-0.2423,-0.2415,-0.242,-0.2423,-0.2426,-0.2431,-0.2435,-0.2439,-0.2416,-0.2389,-0.2451,-0.2408,-0.2444,-0.2445,-0.2461,-0.2461,-0.2575,-0.2461,-0.2461,-0.246,-0.246,0,-0.2473,-0.2502,-0.2467,-0.2484,-0.2516,-0.2485,-0.2517,-0.2507,-0.2501,-0.2517,-0.2482,-0.2497,-0.2465,-0.2477,-0.2459,-0.2488,-0.2489,-0.2482,-0.2478,-0.2487,-0.2488,-0.2492,-0.2487,-0.2463,-0.2462,-0.2462,-0.2461,0,-0.2569,-0.2547,-0.2575,-0.2558,-0.2555,-0.2579,-0.2564,-0.2581,-0.2565,-0.2586,-0.2589,-0.2565,-0.2578,-0.2555,-0.2564,-0.2552,-0.2594,-0.258,-0.2596,-0.2593,-0.2631,-0.2629,-0.2753,-0.2769,-0.2643,-0.2644,-0.2645,0,-0.2626,-0.2647,-0.2633,-0.2641,-0.2637,-0.265,-0.2655,-0.2625,-0.2632,-0.2628,-0.2645,-0.2654,-0.2661,-0.2683,-0.2668,-0.2675,-0.2663,-0.2706,-0.2664,-0.2673,-0.2666,-0.2666,-0.2669,-0.2716,-0.2717,-0.2718,-0.2719,0,-0.273,-0.2718,-0.2726,-0.2731,-0.2738,-0.274,-0.274,-0.2749,-0.2718,-0.2727,-0.274,-0.2745,-0.2755,-0.2766,-0.2769,-0.2764,-0.2738,-0.2732,-0.2741,-0.2752,-0.2762,-0.276,-0.2622,-0.273,-0.2729,-0.2728,-0.2728,-0.2727,-0.281,-0.2828,-0.282,-0.2831,-0.2828,-0.2829,-0.2843,-0.283,-0.284,-0.2846,-0.2827,-0.2845,-0.2839,-0.2841,-0.2839,-0.2852,-0.2833,-0.2846,-0.2849,-0.2854,-0.2861,-0.2758,-0.2852,-0.2852,-0.2852,-0.2851,-0.2851,0,-0.2914,-0.2907,-0.2917,-0.2918,-0.2927,-0.29,-0.2899,-0.2908,-0.2924,-0.292,-0.2927,-0.2942,-0.2953,-0.2938,-0.2945,-0.2959,-0.2947,-0.2963,-0.2963,-0.2962,-0.2876,-0.2869,-0.2972,-0.2972,-0.2972,-0.2972,-0.2972,-0.2972,-0.2969,-0.2999,-0.2986,-0.3013,-0.3006,-0.3022,-0.3024,-0.3025,-0.3022,-0.3041,-0.3049,-0.3039,-0.3031,-0.3038,-0.3047,-0.3042,-0.3048,-0.3068,-0.3059,-0.298,-0.2968,-0.2957,-0.295,-0.3068,-0.3068,-0.3144,-0.3145,-0.3145]}]]